STARLINK-1159, 45057

Orbit data source: Space-Track

STARLINK-1159, 45057 is a payload satellite owned by SpaceX/Seattle (US) in LEO that was launched on Wed, 29 Jan 2020 UTC via an FALCON 9 launch vehicle from the Air Force Eastern Test Range (AFETR). Payload-class satellites include a variety of spacecraft equipped with specific instruments for various scientific and technological missions. These include communications satellites like Starlink; space stations such as the ISS; scientific satellites like the Hubble; Earth observation satellites from companies like Planet Labs, Umbra, and HawkEye 360; GPS; miniature CubeSats for education and research; and military/defense satellites.

Loading next visibility...
Identifier
45057, 2020-006P
Orbit
LEO
Country
Flag of USUS
Related business
Manufacturer
SpaceX/Seattle
Mission
Operational Commercial Communications
Bus & Motor
STARLINK, Unknown motor
Mass
260 kg wet, ~248 kg dry
Launch date (UTC)
2020-01-29 (6 years ago)
Launch vehicle
FALCON 9
Launch site
Air Force Eastern Test Range (AFETR)
Object type
Payload
Rocket body
Debris
Shape & HBR
Box + 1 Pan, 10.1 m
Radar Cross Section
13.562 m², Large (>1 m²)

Expand to show TLE details & history
Last TLE update: 22 hours ago

TLE from 22 hours ago
0 STARLINK-1159
1 45057U 20006P   25286.12547079 -.00002156  00000-0 -12591-3 0  9994
2 45057  53.0556 229.0598 0002060  98.5632 261.5590 15.06393667314229
Epoch: 2025-10-13T03:00Z
TLE epoch observation values (Epoch: 2025-10-13T03:00:40.676Z)
Latitude
-0.00005°
Longitude
161.95754°
Altitude
548.32 km
Speed
7.589 km/s
True Right ascension
15h 16m 14s
True Declination
0° 00' 00"
Sunlit
Object was in daylight at epoch
Visualization orbit readout
Latitude
Unknown
Longitude
Unknown
Altitude
Unknown
Speed
Unknown
Apparent Right ascension
Unknown
Apparent Declination
Unknown
Sunlit
N/A
Visualization observer readout
Local Sidereal Time
19:54:33
Azimuth
Unknown
Elevation
Unknown
Doppler factor
Unknown
Orbital elements
Apogee altitude
548.928 km
Perigee altitude
546.075 km
Semi-major axis
6,925.639 km
Eccentricity
0.00021
Inclination
53.0556°
RAAN
229.0598°
Arg. of periapsis
98.5632°
True anomaly
261.53565°
Mean anomaly
261.559°
Eccentric anomaly
261.54733°
Mean motion
3.76577 °/min
Orbital period
95.6 mins
BSTAR
-0.00012591
Loading maneuver chart data...
Computing Atmospheric mass density...
Loading historical data...
Loading historical data...
Loading historical data...
Loading historical data...
Loading historical data...
Loading historical data...
Loading historical data...

Documentation

Showing up to 5 results
|